Powrót do katalogu

BREEZE-M DEB

LostHEO
NORAD 38630·DEBRIS·🇷🇺 Russia

Wystrzelony Mar 14, 2008 z Baikonur Cosmodrome

Loading…

Następne Przeloty (najbliższe 24 godziny)

TLE

NieaktualneSource: Space-Track

Epoka: Sep 28, 2015, 04:15 UTC

1 38630U 08011CD  15271.17731201 -.00001412  00000-0 -75793-2 0  9991
2 38630  49.2813 256.5100 6504270 137.2706 348.5675  3.11052931 42366

Śledź BREEZE-M DEB w czasie rzeczywistym z AllMySat

Download on the App Store